SCP
0 0 -0 -0 -0 -0 -0 -0 0 -0 -0 -0 -0 -0 -0 -0 -0 -0 -0 -0 -0 -0 -0 -0 -0 -0 -0 -0 -0 -0 -0 -0 -0 -0 -0 -0 -0 -0 -0 0 0 0 0
-0 -0 -0 0 -0 -0 -0 0 0 -0 -0 -0 0 0 -0 -0 -0 -0 -0 -0 -0 -0 -0 -0 -0 -0 -0 -0 -0 -0 -0 -0 -0 -0 -0 0 -0 -0 0 0 0 0 0
0 0 0 0 -0 -0 -0 0 -0 0 0 -0 -0 -0 -0 -0 -0 -0 -0 -0 -0 -0 -0 -0 -0 -0 -0 -0 -0 0 -0 -0 -0 -0 0 0 0 0 0 0 0 0 0
0 0 0 -0 -0 -0 -0 -0 -0 -0 0 -0 -0 -0 -0 -0 -0 -0 -0 0 -0 -0 -0 -0 -0 -0 -0 -0 -0 -0 -0 -0 0 0 0 0 0 0 0 0 0 0 0
0 0 0 -0 -0 -0 -0 -0 -0 -0 -0 -0 -0 -0 -0 -0 -0 -0 0 0 -0 -0 -0 -0 -0 -0 -0 -0 -0 -0 -0 -0 0 0 0 0 0 0 0 0 0 0 0
-0 0 0 0 -0 -0 -0 -0 -0 0 -0 -0 -0 -0 -0 -0 -0 -0 0 -0 -0 -0 -0 -0 -0 -0 -0 -0 -0 -0 -0 -0 0 0 0 -0 -0 0 0 0 0 0 0
-0 0 0 -0 0 -0 -0 0 0 0 -0 -0 0 -0 -0 -0 -0 -0 0 -0 -0 -0 -0 -0 -0 -0 -0 -0 -0 -0 -0 -0 0 0 0 0 0 0 0 0 0 0 0
0 -0 0 0 0 0 -0 0 0 0 -0 -0 -0 0 -0 -0 -0 -0 -0 -0 -0 -0 -0 -0 -0 -0 -0 -0 -0 -0 -0 0 0 0 0 0 0 0 0 0 0 0 0
0 0 -0 0 0 0 0 0 0 -0 -0 -0 0 0 -0 -0 0 -0 -0 -0 -0 -0 -0 -0 -0 -0 -0 -0 0 0 0 0 0 0 0 0 0 0 0 0 0 0 0
0 0 0 0 0 0 0 0 0 0 0 -0 -0 -0 0 0 0 0 -0 -0 -0 -0 -0 -0 -0 -0 -0 0 0 0 0 0 0 0 0 0 0 0 0 0 0 0 0
0 0 0 0 0 0 0 0 0 0 0 0 0 0 0 0 0 0 0 -0 -0 0 -0 -0 -0 0 0 0 0 0 0 0 0 0 0 0 0 0 0 0 0 0 0
0 0 0 0 0 0 0 0 0 0 0 0 0 0 0 0 0 0 0 0 0 0 0 0 0 0 0 0 0 0 0 0 0 0 0 0 0 0 0 0 0 0 0
0 0 0 0 0 0 0 0 0 0 0 0 0 0 0 0 0 0 0 0 0 0 0 0 0 0 0 0 0 0 0 0 0 0 0 0 0 0 0 0 0 0 0
0 0 0 0 0 0 0 0 0 0 0 0 0 0 0 0 0 0 0 0 0 0 0 0 0 0 0 0 0 0 0 0 0 0 0 0 0 0 0 0 0 0 0
0 0 0 0 0 0 0 0 0 0 0 0 0 0 0 0 0 0 0 0 0 0 0 0 0 0 0 0 0 0 0 0 0 0 0 0 0 0 0 0 0 0 0
0 0 0 0 0 0 0 0 0 0 0 0 0 0 0 0 0 0 0 0 0 0 0 0 0 0 0 0 0 0 0 0 0 0 0 0 0 0 0 0 0 0 0
0 0 0 0 0 0 0 0 0 0 0 0 0 0 0 0 0 0 0 0 0 0 0 0 0 0 0 0 0 0 0 0 0 0 0 0 0 0 0 0 0 0 0
0 0 0 0 0 0 0 0 0 0 0 0 0 0 0 0 0 0 0 0 0 0 0 0 0 0 0 0 0 0 0 0 0 0 0 0 0 0 0 0 0 0 0
0 0 0 0 0 0 0 0 0 0 0 0 0 0 0 0 0 0 0 0 0 0 0 0 0 0 0 0 0 0 0 0 0 0 0 0 0 0 0 0 0 0 0
0 0 0 0 0 0 0 0 0 0 0 0 0 0 0 0 0 0 0 0 0 0 0 0 0 0 0 0 0 0 0 0 0 0 0 0 0 0 0 0 0 0 0
0 0 0 0 0 0 0 0 0 0 0 0 0 0 0 0 0 0 0 0 0 0 0 0 0 0 0 0 0 0 0 0 0 0 0 0 0 0 0 0 0 0 0
0 0 0 0 0 0 0 0 0 0 0 0 0 0 0 0 0 0 0 0 0 0 0 0 0 0 0 0 0 0 0 0 0 0 0 0 0 0 0 0 0 0 0
0 0 0 0 0 0 0 0 0 0 0 0 0 0 0 0 0 0 0 0 0 0 0 0 0 0 0 0 0 0 0 0 0 0 0 0 0 0 0 0 0 0 0
0 0 0 0 0 0 0 0 0 0 0 0 0 0 0 0 0 0 0 0 0 0 0 0 0 0 0 0 0 0 0 0 0 0 0 0 0 0 0 0 0 0 0
0 0 0 0 0 0 0 0 0 0 0 0 0 0 0 0 0 0 0 0 0 0 0 0 0 0 0 0 0 0 0 0 0 0 0 0 0 0 0 0 0 0 0
0 0 0 0 0 0 0 0 0 0 0 0 0 0 0 0 0 0 0 0 0 0 0 0 0 0 0 0 0 0 0 0 0 0 0 0 0 0 0 0 0 0 0
Wind_Speed_500mb
17 16 21 19 23 25 29 25 19 16 15 17 17 18 19 21 21 19 19 15 25 29 31 33 36 35 39 39 38 37 38 37 40 38 36 34 36 35 34 35 39 39 35
20 22 24 22 26 26 22 17 13 12 14 15 17 19 23 19 21 22 22 23 28 31 29 30 32 36 37 36 33 33 35 35 36 35 35 37 33 33 30 31 32 30 32
21 26 24 24 24 22 18 13 6 8 14 15 17 22 25 19 20 22 22 27 28 29 29 32 33 34 34 29 30 31 23 25 28 25 33 34 30 30 31 28 28 27 25
21 27 24 26 22 20 15 7 4 7 16 19 20 22 23 17 19 22 21 26 27 25 29 31 31 31 28 23 24 29 23 19 22 22 31 29 29 28 31 29 29 28 26
25 27 28 25 21 16 12 7 5 4 16 18 21 22 19 17 20 21 22 22 23 25 28 27 29 29 23 19 22 26 25 21 17 26 29 26 29 29 25 25 24 22 24
31 29 28 28 23 17 11 8 4 5 11 16 23 24 17 19 17 20 20 19 21 24 24 26 27 25 22 19 17 21 26 26 22 27 25 25 24 22 20 19 19 18 21
33 31 30 29 26 18 13 10 5 5 12 15 22 24 19 25 18 19 18 18 19 21 22 23 21 21 18 15 15 17 18 20 23 24 20 19 18 11 13 14 16 18 18
24 30 32 32 30 24 17 12 6 7 15 22 25 26 22 23 18 18 19 19 19 19 20 19 18 17 15 13 12 13 14 14 17 18 20 17 16 18 17 16 14 16 12
24 24 33 34 32 29 24 17 9 8 13 19 20 24 25 24 23 16 19 19 17 16 17 17 16 15 13 11 10 9 7 7 11 13 15 15 14 15 16 15 13 11 6
26 25 35 36 36 32 30 26 17 10 8 15 18 19 17 14 18 14 15 16 15 15 15 14 14 13 11 10 9 5 2 3 7 9 12 12 14 16 17 16 14 8 2
31 28 35 38 37 35 31 28 24 18 15 18 21 20 19 17 16 17 15 13 14 15 14 13 12 11 11 10 9 6 3 5 6 8 9 11 14 15 16 16 15 6 4
40 35 35 40 41 39 37 35 32 29 24 22 23 24 23 23 21 19 17 16 17 17 16 15 13 12 11 10 8 6 4 5 9 9 9 11 14 14 14 14 12 4 7
40 38 37 37 41 43 43 42 40 34 30 27 27 28 28 27 25 23 21 20 19 19 20 18 17 15 14 12 10 8 7 8 11 13 14 14 15 15 14 13 10 6 11
49 45 40 40 40 40 45 49 48 43 38 33 31 32 33 32 29 27 24 23 23 23 23 22 21 20 17 14 13 12 11 11 14 16 16 17 16 16 15 14 11 9 11
56 50 49 45 45 42 45 47 50 50 46 38 37 40 40 37 34 30 28 29 28 28 27 26 24 24 20 18 15 13 14 15 16 17 17 18 17 17 16 14 12 12 14
55 55 52 55 52 49 50 53 49 47 47 45 43 43 43 41 36 33 31 33 31 31 31 29 28 28 24 21 17 18 17 17 16 16 17 18 19 16 15 15 12 14 15
47 52 57 57 60 58 55 54 51 51 48 50 46 42 46 45 41 38 37 38 35 33 34 34 33 32 29 24 22 22 20 18 17 16 16 16 15 15 14 13 12 13 14
46 49 51 57 61 64 63 60 57 55 54 52 49 46 46 48 46 43 43 41 36 37 37 37 36 36 34 30 27 24 24 23 21 20 21 20 17 14 12 12 13 12 13
49 50 50 55 59 61 65 65 63 59 59 57 55 52 51 52 50 49 48 43 41 41 42 41 41 40 39 34 31 29 29 27 24 24 23 22 19 16 12 9 13 13 15
57 56 57 58 58 59 63 69 70 67 67 63 63 62 58 56 52 52 50 49 47 48 48 47 45 44 41 37 36 37 35 33 32 31 27 24 21 20 17 14 15 16 17
59 64 62 65 66 64 67 72 78 79 75 72 72 68 65 61 56 57 57 55 54 55 52 49 48 47 46 41 41 45 42 39 40 32 30 28 23 21 22 19 17 18 18
55 56 66 71 72 75 72 71 75 78 80 77 77 77 71 68 63 63 63 62 59 60 60 57 56 55 50 48 49 44 39 39 39 31 30 32 26 24 23 19 18 21 22
60 61 65 71 79 77 77 77 76 77 83 88 88 87 82 75 72 70 68 67 65 67 68 65 62 61 58 53 55 48 18 20 17 23 28 32 31 30 26 22 28 30 28
76 69 63 68 79 83 81 86 87 84 84 88 95 93 86 84 81 77 76 75 74 74 76 76 69 67 64 63 61 64 64 58 27 17 25 36 34 33 30 32 32 34 34
62 67 79 76 80 85 88 89 91 95 89 75 93 98 93 90 88 86 82 84 84 84 81 83 78 75 74 72 71 69 67 66 63 59 51 46 42 39 32 33 36 38 38
61 64 66 77 84 82 86 93 96 96 93 91 92 95 96 95 91 90 89 90 90 90 92 88 84 81 80 83 81 75 75 71 68 66 62 63 59 42 37 43 41 41 40
Wind_Direction_500mb
180 173 149 149 128 128 130 126 120 108 82 82 97 106 112 116 122 141 140 138 129 126 103 100 99 93 92 94 93 87 78 83 83 82 76 74 81 79 79 70 67 69 63
175 167 161 149 138 138 140 134 130 104 87 91 108 103 114 121 107 109 127 121 111 117 106 109 97 100 100 96 86 77 74 72 66 79 80 72 68 70 80 80 76 69 65
173 170 168 154 150 151 151 142 118 98 105 103 110 107 116 116 105 105 108 113 112 115 110 104 107 107 103 96 89 86 81 66 62 64 77 77 64 60 64 81 76 71 63
180 173 176 167 166 157 146 123 88 113 124 121 130 123 124 120 116 110 112 118 115 113 109 110 113 110 108 103 82 83 95 66 50 65 70 67 59 55 56 59 71 67 58
182 177 176 177 170 162 147 131 98 95 137 134 143 129 131 124 119 124 119 122 117 112 111 118 116 114 114 102 84 83 80 61 59 71 73 66 64 58 50 47 54 51 44
181 183 180 177 179 175 166 152 123 112 137 142 153 131 138 130 136 126 124 123 121 117 124 122 120 121 119 111 94 85 78 71 76 76 75 67 61 44 44 44 44 41 34
177 185 184 181 183 185 181 179 157 136 146 147 155 147 150 141 145 147 139 134 130 128 125 122 124 126 123 116 98 84 82 75 76 67 59 54 55 36 35 33 35 33 52
187 184 188 187 187 188 189 189 169 161 170 165 164 157 155 150 155 160 154 148 141 133 129 132 132 129 130 125 108 89 72 58 66 56 47 49 44 24 32 35 27 42 70
201 197 193 193 194 190 187 191 198 187 187 172 172 168 167 165 167 155 159 154 145 140 146 145 138 139 137 134 126 107 82 48 43 41 35 27 17 22 30 29 26 38 72
205 205 202 202 198 202 195 191 194 195 194 186 183 190 182 171 184 181 179 162 153 160 165 156 152 149 150 147 145 141 83 351 12 14 6 6 5 7 13 12 17 31 146
212 213 206 207 209 204 206 202 199 201 209 203 196 193 199 193 192 198 193 178 180 183 180 176 169 168 174 174 176 193 201 297 328 353 343 350 353 354 355 358 16 58 206
217 212 211 210 211 211 210 211 209 210 211 210 206 207 205 206 208 206 200 199 203 200 199 196 193 197 202 203 209 229 227 271 296 314 326 335 338 339 339 344 12 34 273
228 223 215 210 211 215 216 215 216 216 215 215 214 211 216 217 215 214 213 213 215 214 215 215 214 218 221 232 241 255 268 283 290 303 315 323 322 323 320 323 341 318 274
228 232 225 218 215 215 220 226 218 219 221 222 225 223 222 222 221 221 223 223 224 225 226 227 230 233 238 248 253 260 274 289 292 292 305 309 305 308 308 303 311 310 292
231 227 233 227 223 221 220 224 220 218 225 227 232 232 231 227 226 228 230 232 230 231 232 233 237 244 245 253 262 272 275 279 283 294 300 298 297 298 295 283 284 293 296
232 230 230 233 231 228 225 229 224 221 226 229 228 231 235 237 235 235 237 239 238 237 236 237 240 245 248 254 255 258 263 272 283 290 296 297 288 288 286 277 262 270 283
246 236 230 234 235 234 232 231 233 226 229 231 230 231 237 241 241 242 244 242 242 239 240 240 241 247 251 255 256 259 264 267 274 283 288 297 278 280 281 275 264 267 272
246 240 234 233 236 237 236 236 237 236 236 238 237 239 241 243 242 243 245 246 242 241 243 244 245 249 254 257 261 259 261 266 271 277 280 282 277 271 275 270 260 262 270
260 248 240 236 236 240 241 239 240 241 241 244 244 244 246 245 243 244 246 246 246 245 246 248 247 251 254 257 261 260 261 266 273 277 280 268 262 260 262 260 268 265 270
263 258 250 244 242 240 243 242 241 242 244 245 247 247 246 245 244 246 247 246 243 246 245 247 248 250 254 257 257 260 263 267 272 277 275 259 242 244 256 253 263 273 278
265 258 255 249 246 240 238 239 238 238 239 241 244 245 245 244 244 245 247 246 244 246 249 250 252 250 252 254 257 262 266 269 269 273 263 247 236 237 251 257 263 273 280
269 269 262 256 249 246 242 244 243 244 244 245 247 246 246 245 245 245 245 246 246 247 248 245 246 248 250 248 251 261 273 274 270 264 249 235 237 236 253 252 272 277 285
269 266 262 262 255 251 248 245 244 245 249 248 247 247 245 245 245 245 246 247 246 247 249 248 246 247 249 248 248 246 245 248 258 250 251 238 240 239 255 269 278 288 280
264 267 264 260 257 253 249 247 247 246 249 252 250 252 252 247 247 246 247 247 247 247 248 250 247 247 248 248 246 245 247 253 264 271 246 234 240 241 251 262 273 282 272
274 269 261 259 257 252 249 250 252 250 250 258 256 254 254 254 251 250 250 250 249 249 250 251 249 247 249 249 249 250 252 251 253 255 271 259 251 262 269 275 273 278 279
279 274 268 259 255 253 252 254 251 253 253 253 253 256 255 254 255 253 253 251 251 251 252 252 253 251 251 252 253 251 251 250 252 248 249 262 269 274 273 271 274 274 272
Wind_Speed_850mb
17 16 21 19 23 25 29 25 19 16 15 17 17 18 19 21 21 19 19 15 25 29 31 33 36 35 39 39 38 37 38 37 40 38 36 34 36 35 34 35 39 39 35
20 22 24 22 26 26 22 17 13 12 14 15 17 19 23 19 21 22 22 23 28 31 29 30 32 36 37 36 33 33 35 35 36 35 35 37 33 33 30 31 32 30 32
21 26 24 24 24 22 18 13 6 8 14 15 17 22 25 19 20 22 22 27 28 29 29 32 33 34 34 29 30 31 23 25 28 25 33 34 30 30 31 28 28 27 25
21 27 24 26 22 20 15 7 4 7 16 19 20 22 23 17 19 22 21 26 27 25 29 31 31 31 28 23 24 29 23 19 22 22 31 29 29 28 31 29 29 28 26
25 27 28 25 21 16 12 7 5 4 16 18 21 22 19 17 20 21 22 22 23 25 28 27 29 29 23 19 22 26 25 21 17 26 29 26 29 29 25 25 24 22 24
31 29 28 28 23 17 11 8 4 5 11 16 23 24 17 19 17 20 20 19 21 24 24 26 27 25 22 19 17 21 26 26 22 27 25 25 24 22 20 19 19 18 21
33 31 30 29 26 18 13 10 5 5 12 15 22 24 19 25 18 19 18 18 19 21 22 23 21 21 18 15 15 17 18 20 23 24 20 19 18 11 13 14 16 18 18
24 30 32 32 30 24 17 12 6 7 15 22 25 26 22 23 18 18 19 19 19 19 20 19 18 17 15 13 12 13 14 14 17 18 20 17 16 18 17 16 14 16 12
24 24 33 34 32 29 24 17 9 8 13 19 20 24 25 24 23 16 19 19 17 16 17 17 16 15 13 11 10 9 7 7 11 13 15 15 14 15 16 15 13 11 6
26 25 35 36 36 32 30 26 17 10 8 15 18 19 17 14 18 14 15 16 15 15 15 14 14 13 11 10 9 5 2 3 7 9 12 12 14 16 17 16 14 8 2
31 28 35 38 37 35 31 28 24 18 15 18 21 20 19 17 16 17 15 13 14 15 14 13 12 11 11 10 9 6 3 5 6 8 9 11 14 15 16 16 15 6 4
40 35 35 40 41 39 37 35 32 29 24 22 23 24 23 23 21 19 17 16 17 17 16 15 13 12 11 10 8 6 4 5 9 9 9 11 14 14 14 14 12 4 7
40 38 37 37 41 43 43 42 40 34 30 27 27 28 28 27 25 23 21 20 19 19 20 18 17 15 14 12 10 8 7 8 11 13 14 14 15 15 14 13 10 6 11
49 45 40 40 40 40 45 49 48 43 38 33 31 32 33 32 29 27 24 23 23 23 23 22 21 20 17 14 13 12 11 11 14 16 16 17 16 16 15 14 11 9 11
56 50 49 45 45 42 45 47 50 50 46 38 37 40 40 37 34 30 28 29 28 28 27 26 24 24 20 18 15 13 14 15 16 17 17 18 17 17 16 14 12 12 14
55 55 52 55 52 49 50 53 49 47 47 45 43 43 43 41 36 33 31 33 31 31 31 29 28 28 24 21 17 18 17 17 16 16 17 18 19 16 15 15 12 14 15
47 52 57 57 60 58 55 54 51 51 48 50 46 42 46 45 41 38 37 38 35 33 34 34 33 32 29 24 22 22 20 18 17 16 16 16 15 15 14 13 12 13 14
46 49 51 57 61 64 63 60 57 55 54 52 49 46 46 48 46 43 43 41 36 37 37 37 36 36 34 30 27 24 24 23 21 20 21 20 17 14 12 12 13 12 13
49 50 50 55 59 61 65 65 63 59 59 57 55 52 51 52 50 49 48 43 41 41 42 41 41 40 39 34 31 29 29 27 24 24 23 22 19 16 12 9 13 13 15
57 56 57 58 58 59 63 69 70 67 67 63 63 62 58 56 52 52 50 49 47 48 48 47 45 44 41 37 36 37 35 33 32 31 27 24 21 20 17 14 15 16 17
59 64 62 65 66 64 67 72 78 79 75 72 72 68 65 61 56 57 57 55 54 55 52 49 48 47 46 41 41 45 42 39 40 32 30 28 23 21 22 19 17 18 18
55 56 66 71 72 75 72 71 75 78 80 77 77 77 71 68 63 63 63 62 59 60 60 57 56 55 50 48 49 44 39 39 39 31 30 32 26 24 23 19 18 21 22
60 61 65 71 79 77 77 77 76 77 83 88 88 87 82 75 72 70 68 67 65 67 68 65 62 61 58 53 55 48 18 20 17 23 28 32 31 30 26 22 28 30 28
76 69 63 68 79 83 81 86 87 84 84 88 95 93 86 84 81 77 76 75 74 74 76 76 69 67 64 63 61 64 64 58 27 17 25 36 34 33 30 32 32 34 34
62 67 79 76 80 85 88 89 91 95 89 75 93 98 93 90 88 86 82 84 84 84 81 83 78 75 74 72 71 69 67 66 63 59 51 46 42 39 32 33 36 38 38
61 64 66 77 84 82 86 93 96 96 93 91 92 95 96 95 91 90 89 90 90 90 92 88 84 81 80 83 81 75 75 71 68 66 62 63 59 42 37 43 41 41 40
Wind_Direction_850mb
180 173 149 149 128 128 130 126 120 108 82 82 97 106 112 116 122 141 140 138 129 126 103 100 99 93 92 94 93 87 78 83 83 82 76 74 81 79 79 70 67 69 63
175 167 161 149 138 138 140 134 130 104 87 91 108 103 114 121 107 109 127 121 111 117 106 109 97 100 100 96 86 77 74 72 66 79 80 72 68 70 80 80 76 69 65
173 170 168 154 150 151 151 142 118 98 105 103 110 107 116 116 105 105 108 113 112 115 110 104 107 107 103 96 89 86 81 66 62 64 77 77 64 60 64 81 76 71 63
180 173 176 167 166 157 146 123 88 113 124 121 130 123 124 120 116 110 112 118 115 113 109 110 113 110 108 103 82 83 95 66 50 65 70 67 59 55 56 59 71 67 58
182 177 176 177 170 162 147 131 98 95 137 134 143 129 131 124 119 124 119 122 117 112 111 118 116 114 114 102 84 83 80 61 59 71 73 66 64 58 50 47 54 51 44
181 183 180 177 179 175 166 152 123 112 137 142 153 131 138 130 136 126 124 123 121 117 124 122 120 121 119 111 94 85 78 71 76 76 75 67 61 44 44 44 44 41 34
177 185 184 181 183 185 181 179 157 136 146 147 155 147 150 141 145 147 139 134 130 128 125 122 124 126 123 116 98 84 82 75 76 67 59 54 55 36 35 33 35 33 52
187 184 188 187 187 188 189 189 169 161 170 165 164 157 155 150 155 160 154 148 141 133 129 132 132 129 130 125 108 89 72 58 66 56 47 49 44 24 32 35 27 42 70
201 197 193 193 194 190 187 191 198 187 187 172 172 168 167 165 167 155 159 154 145 140 146 145 138 139 137 134 126 107 82 48 43 41 35 27 17 22 30 29 26 38 72
205 205 202 202 198 202 195 191 194 195 194 186 183 190 182 171 184 181 179 162 153 160 165 156 152 149 150 147 145 141 83 351 12 14 6 6 5 7 13 12 17 31 146
212 213 206 207 209 204 206 202 199 201 209 203 196 193 199 193 192 198 193 178 180 183 180 176 169 168 174 174 176 193 201 297 328 353 343 350 353 354 355 358 16 58 206
217 212 211 210 211 211 210 211 209 210 211 210 206 207 205 206 208 206 200 199 203 200 199 196 193 197 202 203 209 229 227 271 296 314 326 335 338 339 339 344 12 34 273
228 223 215 210 211 215 216 215 216 216 215 215 214 211 216 217 215 214 213 213 215 214 215 215 214 218 221 232 241 255 268 283 290 303 315 323 322 323 320 323 341 318 274
228 232 225 218 215 215 220 226 218 219 221 222 225 223 222 222 221 221 223 223 224 225 226 227 230 233 238 248 253 260 274 289 292 292 305 309 305 308 308 303 311 310 292
231 227 233 227 223 221 220 224 220 218 225 227 232 232 231 227 226 228 230 232 230 231 232 233 237 244 245 253 262 272 275 279 283 294 300 298 297 298 295 283 284 293 296
232 230 230 233 231 228 225 229 224 221 226 229 228 231 235 237 235 235 237 239 238 237 236 237 240 245 248 254 255 258 263 272 283 290 296 297 288 288 286 277 262 270 283
246 236 230 234 235 234 232 231 233 226 229 231 230 231 237 241 241 242 244 242 242 239 240 240 241 247 251 255 256 259 264 267 274 283 288 297 278 280 281 275 264 267 272
246 240 234 233 236 237 236 236 237 236 236 238 237 239 241 243 242 243 245 246 242 241 243 244 245 249 254 257 261 259 261 266 271 277 280 282 277 271 275 270 260 262 270
260 248 240 236 236 240 241 239 240 241 241 244 244 244 246 245 243 244 246 246 246 245 246 248 247 251 254 257 261 260 261 266 273 277 280 268 262 260 262 260 268 265 270
263 258 250 244 242 240 243 242 241 242 244 245 247 247 246 245 244 246 247 246 243 246 245 247 248 250 254 257 257 260 263 267 272 277 275 259 242 244 256 253 263 273 278
265 258 255 249 246 240 238 239 238 238 239 241 244 245 245 244 244 245 247 246 244 246 249 250 252 250 252 254 257 262 266 269 269 273 263 247 236 237 251 257 263 273 280
269 269 262 256 249 246 242 244 243 244 244 245 247 246 246 245 245 245 245 246 246 247 248 245 246 248 250 248 251 261 273 274 270 264 249 235 237 236 253 252 272 277 285
269 266 262 262 255 251 248 245 244 245 249 248 247 247 245 245 245 245 246 247 246 247 249 248 246 247 249 248 248 246 245 248 258 250 251 238 240 239 255 269 278 288 280
264 267 264 260 257 253 249 247 247 246 249 252 250 252 252 247 247 246 247 247 247 247 248 250 247 247 248 248 246 245 247 253 264 271 246 234 240 241 251 262 273 282 272
274 269 261 259 257 252 249 250 252 250 250 258 256 254 254 254 251 250 250 250 249 249 250 251 249 247 249 249 249 250 252 251 253 255 271 259 251 262 269 275 273 278 279
279 274 268 259 255 253 252 254 251 253 253 253 253 256 255 254 255 253 253 251 251 251 252 252 253 251 251 252 253 251 251 250 252 248 249 262 269 274 273 271 274 274 272